• Processing (Info)

  • MPEC 2009-V32 : 2009 VW

    The following Minor Planet Electronic Circular may be linked-to from your own Web pages, but must not otherwise be redistributed electronically.

    A form allowing access to any MPEC is at the bottom of this page.


    Read MPEC 2009-V31 Read MPEC 2009-V33


    M.P.E.C. 2009-V32                                Issued 2009 Nov.  9, 16:53 UT
    
         The Minor Planet Electronic Circulars contain information on unusual
             minor planets and routine data on comets.  They are published
       on behalf of Commission 20 of the International Astronomical Union by the
              Minor Planet Center, Smithsonian Astrophysical Observatory,
                              Cambridge, MA 02138, U.S.A.
    
                 Prepared using the Tamkin Foundation Computer Network
    
                                  MPC@CFA.HARVARD.EDU
              URL http://www.cfa.harvard.edu/iau/mpc.html  ISSN 1523-6714
    
                                        2009 VW
    
    Observations:
         K09V00W* C2009 11 09.38294 04 23 49.88 +11 03 31.3          16.9 V EV032703
         K09V00W  C2009 11 09.38955 04 23 44.08 +11 04 16.2          16.7 V EV032703
         K09V00W  C2009 11 09.39602 04 23 38.47 +11 04 59.4          16.8 V EV032703
         K09V00W  C2009 11 09.40253 04 23 32.82 +11 05 42.9          16.8 V EV032703
         K09V00W  C2009 11 09.44234 04 22 58.33 +11 10 07.7          16.8 V EV032703
         K09V00W  C2009 11 09.44396 04 22 56.92 +11 10 18.0          17.0 V EV032703
         K09V00W  C2009 11 09.44652 04 22 54.53 +11 10 31.8          17.6 R EV032H01
         K09V00W  C2009 11 09.45012 04 22 51.43 +11 10 55.6          17.3 R EV032H01
         K09V00W  C2009 11 09.45514 04 22 47.14 +11 11 28.6          17.2 R EV032H01
         K09V00W  C2009 11 09.46008 04 22 42.92 +11 12 01.0          17.3 R EV032H01
         K09V00W  C2009 11 09.46427 04 22 39.35 +11 12 28.5          17.4 R EV032H01
         K09V00W  C2009 11 09.47396 04 22 31.29 +11 13 35.1          17.1 V EV032703
         K09V00W  C2009 11 09.47450 04 22 30.82 +11 13 38.8          16.9 V EV032703
         K09V00W  C2009 11 09.47505 04 22 30.36 +11 13 42.4          17.0 V EV032703
         K09V00W  C2009 11 09.47559 04 22 29.89 +11 13 46.0          17.1 V EV032703
         K09V00W  C2009 11 09.49475 04 22 13.64 +11 15 52.4          17.3 R EV032926
         K09V00W  C2009 11 09.49594 04 22 12.64 +11 16 00.1          17.4 R EV032926
         K09V00W  C2009 11 09.49713 04 22 11.64 +11 16 08.0          17.4 R EV032926
         K09V00W  C2009 11 09.53513 04 21 39.92 +11 20 11.1          16.7 V EV032703
         K09V00W  C2009 11 09.53567 04 21 39.43 +11 20 14.6          17.0 V EV032703
         K09V00W .C2009 11 09.64306 04 20 19.16 +11 33 52.2          16.9 R EV032D90
         K09V00W .C2009 11 09.64558 04 20 17.07 +11 34 08.1          16.8 R EV032D90
         K09V00W .C2009 11 09.64809 04 20 14.96 +11 34 23.8          16.6 R EV032D90
    
    Observer details:
    703 Catalina Sky Survey.  Observer A. Boattini.  Measurers E. C. Beshore,
        A. Boattini, G. J. Garradd, A. R. Gibbs, A. D. Grauer, R. E. Hill,
        R. A. Kowalski, S. M. Larson, R. H. McNaught.  0.68-m Schmidt + CCD.
    926 Tenagra II Observatory.  Observers P. R. Holvorcem, M. Schwartz.  Measurer
        P. R. Holvorcem.  0.81-m f/7 Ritchey-Chretien + CCD.
    D90 RAS Observatory, Moorook.  Observers C. Jacques, E. Pimentel.  Measurer
        C. Jacques.  0.40-m f/8.4 reflector + CCD.
    H01 Magdalena Ridge Observatory, Socorro.  Observer W. H. Ryan.  2.4-m f/8.9
        reflector + CCD.
    
    Orbital elements:
    2009 VW                                             PHA, Earth MOID = 0.0281 AU
    Epoch 2010 Jan. 4.0 TT = JDT 2455200.5                  MPC
    M  66.75380              (2000.0)            P               Q
    n   0.57884123     Peri.  255.67522     +0.63915133     +0.76225453
    a   1.4259241      Node    54.52009     -0.64834393     +0.60553799
    e   0.5581934      Incl.    7.21289     -0.41368554     +0.22867396
    P   1.70           H   21.6           G   0.15           U   9
    Residuals in seconds of arc
    091109 703  0.5-  0.5-    091109 H01  0.1+  0.1+    091109 926  0.3-  0.0
    091109 703  0.8-  0.0     091109 H01  0.0   0.0     091109 926  0.3-  0.2+
    091109 703  0.3-  0.2-    091109 H01  0.0   0.1+    091109 703  0.3-  0.4-
    091109 703  0.1+  0.3-    091109 703  0.3-  0.2-    091109 703  0.9-  0.4-
    091109 703  0.4-  0.1+    091109 703  0.5-  0.0     091109 D90  0.3-  0.1+
    091109 703  0.7-  0.3-    091109 703  0.4-  0.0     091109 D90  0.1-  0.1-
    091109 H01  0.3+  0.0     091109 703  0.5-  0.1+    091109 D90  0.3-  0.4-
    091109 H01  0.0   0.1+    091109 926  0.4-  0.0
    
    Ephemeris:
    2009 VW                  a,e,i = 1.43, 0.56, 7                   q = 0.6300
    Date    TT    R. A. (2000) Decl.     Delta      r     Elong.  Phase     V
    2009 11 05    06 00.08   -02 52.0    0.0510   1.023   127.3    50.4    17.1
    2009 11 07    05 05.87   +05 09.6    0.0625   1.043   144.6    33.5    17.1
    2009 11 09    04 29.39   +10 19.2    0.0772   1.062   156.5    21.8    17.2
    2009 11 11    04 04.30   +13 37.7    0.0937   1.081   165.1    13.6    17.4
    2009 11 13    03 46.38   +15 50.0    0.111    1.100   171.7     7.5    17.6
    2009 11 15    03 33.13   +17 22.2    0.130    1.119   176.9     2.7    17.7
    2009 11 17    03 23.06   +18 29.1    0.149    1.138   178.5     1.3    17.9
    2009 11 19    03 15.23   +19 19.4    0.169    1.157   174.8     4.5    18.4
    2009 11 21    03 09.06   +19 58.1    0.189    1.175   171.4     7.2    18.9
    2009 11 23    03 04.15   +20 28.8    0.210    1.194   168.3     9.7    19.2
    2009 11 25    03 00.22   +20 53.6    0.231    1.212   165.4    11.8    19.6
    2009 11 27    02 57.08   +21 14.1    0.252    1.230   162.7    13.8    19.8
    2009 11 29    02 54.59   +21 31.3    0.274    1.248   160.2    15.5    20.1
    2009 12 01    02 52.64   +21 45.9    0.297    1.266   157.8    17.1    20.4
    2009 12 03    02 51.14   +21 58.6    0.320    1.284   155.5    18.6    20.6
    2009 12 05    02 50.04   +22 09.9    0.343    1.301   153.3    19.9    20.8
    2009 12 07    02 49.29   +22 19.9    0.367    1.318   151.2    21.1    21.1
    2009 12 09    02 48.83   +22 29.0    0.391    1.336   149.1    22.3    21.3
    2009 12 11    02 48.65   +22 37.5    0.415    1.352   147.1    23.3    21.5
    2009 12 13    02 48.71   +22 45.4    0.441    1.369   145.1    24.3    21.6
    2009 12 15    02 49.00   +22 52.9    0.466    1.386   143.2    25.2    21.8
    2009 12 17    02 49.49   +23 00.1    0.492    1.402   141.3    26.0    22.0
    2009 12 19    02 50.18   +23 07.1    0.518    1.419   139.5    26.8    22.1
    2009 12 21    02 51.04   +23 14.0    0.545    1.435   137.7    27.5    22.3
    2009 12 23    02 52.06   +23 20.8    0.572    1.451   136.0    28.1    22.4
    2009 12 25    02 53.23   +23 27.5    0.600    1.466   134.2    28.7    22.6
    
    Timothy B. Spahr             (C) Copyright 2009 MPC           M.P.E.C. 2009-V32
    

    Read MPEC 2009-V31 Read MPEC 2009-V33


    MPEC number:

    Enter an MPEC number in one of the following forms:

    • 1997-B01 (the full form)
    • J97B01 (the packed version of the full form)
    • B01 (the abbreviated form)